Regional Weather Roundup
Issued by NWS

Home | Current Version | Previous Version | Text Only | Print | Product List | Glossary Off
Versions: 1 2 3 4 5 6 7 8 9 10 11 12 13 14 15 16 17 18 19 20 21 22 23 24 25 26 27 28 29 30 31 32 33 34 35 36 37 38 39 40 41 42 43 44 45 46 47 48 49 50

000
ASUS43 KMPX 300701
RWRMN
WEATHER ROUNDUP FOR MINNESOTA
NATIONAL WEATHER SERVICE TWIN CITIES/CHANHASSEN MN
200 AM CDT TUE AUG 30 2016


NOTE: "FAIR" INDICATES FEW OR NO CLOUDS BELOW 12,000 FEET WITH NO
SIGNIFICANT WEATHER AND/OR OBSTRUCTIONS TO VISIBILITY. N/A MEANS
CURRENT SKY AND/OR WEATHER CONDITIONS ARE NOT AVAILABLE.

MNZ060>063-068>070-300800-
   Twin Cities Metro

CITY           SKY/WX    TMP DP  RH WIND       PRES   REMARKS
TWIN CITIES    LGT RAIN  70  66  87 E10       30.22R
ST PAUL        LGT RAIN  69  64  84 NE15      30.20F
CRYSTAL        RAIN      69  63  81 SE13      30.16F
BLAINE         RAIN      70  70 100 SE22G28   30.15F
LAKEVILLE      CLOUDY    68  66  94 N8        30.22F
EDEN PRAIRIE   TSTM      69  65  86 SE8       30.22R FOG
LAKEVILLE      CLOUDY    68  66  94 N8        30.22F
SOUTH ST PAUL  LGT RAIN  69  67  92 S3        30.21F
LAKE ELMO      LGT RAIN  68  64  88 NE6       30.24S
$$
MNZ001>005-007-008-013>017-022>024-027-028-300800-
   Northwest Minnesota

CITY           SKY/WX    TMP DP  RH WIND       PRES   REMARKS
BEMIDJI        CLEAR     53  52  96 CALM      30.22R
HALLOCK        CLEAR     50  48  93 N5        30.20S
ROSEAU         CLEAR     50  45  81 CALM      30.21R
WARROAD        CLEAR     52  46  82 CALM      30.21R
THIEF RVR FALL CLEAR     53  51  93 CALM      30.23S
CROOKSTON      CLEAR     54  52  94 CALM      30.22S
FOSSTON        CLEAR     48  48 100 CALM      30.23R
DETROIT LAKES  CLOUDY    61  55  82 CALM      30.24R
MOORHEAD       CLEAR     55  54  94 N5        30.22S
PARK RAPIDS    PTCLDY    59  56  89 CALM      30.22S
MAHNOMEN       FAIR      56  54  94 CALM      30.22S
$$
MNZ006-009>011-018-025>026-300800-
   North Central Minnesota

CITY           SKY/WX    TMP DP  RH WIND       PRES   REMARKS
BAUDETTE       CLEAR     53  51  93 W3        30.19R
FLAG ISLAND    CLEAR     59  54  82 NW3       30.18S
INTL FALLS     CLEAR     50  48  93 CALM      30.18R
WASKISH        CLEAR     59  55  88 CALM      30.21R
BIG FORK       CLEAR     57  55  94 CALM      30.20R
LONGVILLE      CLEAR     59  57  94 W3        30.20F
GRAND RAPIDS   CLEAR     62  59  90 NW8       30.20S
CRANE LAKE     MOCLDY    55  54  94 NW1       30.19R
ORR            CLEAR     61  57  88 CALM      30.16R
COOK           CLEAR     61  59  94 CALM      30.18S
WALKER           N/A     55  55  99 CALM      30.22S FOG
$$
MNZ012-019>021-037-300800-
   Northeast Minnesota

CITY           SKY/WX    TMP DP  RH WIND       PRES   REMARKS
DULUTH         CLOUDY    66  65  96 SW8       30.16R
ELY            CLEAR     63  63 100 NW3       30.16R
HIBBING        CLEAR     59  58  96 NW7       30.17R
EVELETH        CLEAR     65  60  84 NW7       30.17R
DULUTH HARBOR  CLOUDY    68  64  88 SW10      30.14F
TWO HARBORS    CLOUDY    68  63  83 SW3       30.12R
SILVER BAY     CLOUDY    66  64  94 CALM      30.11S
GRAND MARAIS     N/A     66  65  96 CALM      30.07F
G MARAIS ARPRT PTCLDY    64  61  88 NW5       30.15S
$$
MNZ029>031-032-039>041-046>048-054>057-064-300800-
   West Central Minnesota

CITY           SKY/WX    TMP DP  RH WIND       PRES   REMARKS
FERGUS FALLS   PTCLDY    63  63 100 NE5       30.23R
WHEATON        CLEAR     63  59  88 CALM      30.22F
MORRIS         CLEAR     64  63  94 NW1       30.20S
ALEXANDRIA     CLEAR     67  62  84 NE8       30.21S
ELBOW LAKE     FAIR      66  63  90 NE3       30.21S
WADENA         CLEAR     61  59  94 N5        30.21S
GLENWOOD       CLEAR     66  64  94 N7        30.20F
APPLETON       PTCLDY    70  64  83 N8        30.18S
BENSON         CLOUDY    66  63  88 NE6       30.18F
ORTONVILLE     MOCLDY    68  63  83 CALM      30.20R
MADISON        CLOUDY    70  66  88 N5        30.19R
WILLMAR        MOCLDY    72  66  83 SE8       30.19R
$$
MNZ033>034-036-042>043-049>051-058-059-300800-
   Central Minnesota

CITY           SKY/WX    TMP DP  RH WIND       PRES   REMARKS
ST CLOUD       CLOUDY    65  65 100 NE3       30.18R
SAUK CENTRE    PTSUNNY   69  67  94 CALM      30.19F
PAYNESVILLE    CLOUDY    66  66 100 CALM      30.18R
AITKIN         CLOUDY    63  57  82 CALM      30.18R
PINE RIVER     CLEAR     63  63 100 NW3       30.23S
BRAINERD       CLOUDY    66  63  90 CALM      30.19S
STAPLES        CLOUDY    61  61 100 NW5       30.20F
LONG PRAIRIE   FAIR      64  63  94 CALM      30.20S
LITTLE FALLS   MOCLDY    64  61  88 CALM      30.18F FOG
LITCHFIELD     LGT RAIN  70  66  88 S6        30.16F
BUFFALO        LGT RAIN  67  64  88 CALM      30.18R
MAPLE LAKE     CLOUDY    68  67  96 CALM      30.18R
HUTCHINSON     HVY RAIN  67  66  97 E10       30.20F
$$
MNZ037-044-045-052-053-300800-
   East Central Minnesota

CITY           SKY/WX    TMP DP  RH WIND       PRES   REMARKS
PRINCETON      CLOUDY    66  64  94 CALM      30.19R
MORA           CLOUDY    64  64 100 CALM      30.19S
CAMBRIDGE      CLOUDY    70  63  78 S3        30.17R
RUSH CITY      CLOUDY    65  64  94 CALM      30.18R
MOOSE LAKE     CLOUDY    64  63  94 CALM      30.16S
HINCKLEY       FAIR      64  64 100 CALM      30.17S
CLOQUET        CLOUDY    64  63  94 SW6       30.17R
MCGREGOR       CLOUDY    64  63  94 CALM      30.19R
$$
MNZ071>073-080-081-089-090-097-098-300800-
   Southwest Minnesota

CITY           SKY/WX    TMP DP  RH WIND       PRES   REMARKS
MONTEVIDEO     MOCLDY    70  68  94 NE3       30.19S
GRANITE FALLS  CLOUDY    74  70  87 N8        30.18S
CANBY          CLOUDY    72  68  88 NW5       30.21R
MARSHALL       CLOUDY    73  70  90 W10       30.19R
REDWOOD FALLS  PTCLDY    72  68  87 E6        30.15S
OLIVIA         CLOUDY    70  66  88 E13G18    30.18R
PIPESTONE        N/A     72  66  83 N3        30.21R
WINDOM         CLOUDY    72  70  94 SW3       30.20R
WORTHINGTON    CLOUDY    70  69  97 SW8       30.20R
JACKSON        CLOUDY    70  64  83 SW6       30.21R
TRACY          PTCLDY    73  70  93 W5        30.18S
SLAYTON        CLOUDY    68  68 100 NW6       30.21R
$$
MNZ065>067-074>077-082>085-091>093-300800-
   South Central Minnesota

CITY           SKY/WX    TMP DP  RH WIND       PRES   REMARKS
NEW ULM        CLOUDY    70  66  88 NE9G21    30.21R
ST JAMES       CLOUDY    70  70 100 CALM      30.19R
FAIRMONT       CLOUDY    68  67  96 CALM      30.19R FOG
GLENCOE        TSTM      67  67 100 CALM      30.21S
FARIBAULT      RAIN      70  66  88 N9G20     30.23S
OWATONNA       PTCLDY    68  64  88 N12G17    30.22R
WASECA         CLOUDY    64  63  94 CALM      30.21S
ALBERT LEA     CLOUDY    70  66  88 S3        30.20S
$$
MNZ078>079-086>088-094>096-300800-
   Southeast Minnesota

CITY           SKY/WX    TMP DP  RH WIND       PRES   REMARKS
ROCHESTER      FOG       67  67 100 CALM      30.21F VSB 1/2
RED WING       CLOUDY    72  66  83 CALM      30.21R
STANTON        CLOUDY    68  64  88 NE8       30.21R
DODGE CENTER   MOCLDY    66  64  94 CALM      30.21S
WINONA         MOCLDY    70  68  94 N3        30.19S
AUSTIN         CLOUDY    66  66 100 CALM      30.20F FOG
PRESTON        FOG       69  68  95 CALM      30.21S VSB 1/4
$$
ABBREVIATIONS USED IN REMARKS
   TC - TEMPERATURES IN CELSIUS
  WCI - WIND CHILL INDEX
   HX - HEAT INDEX
  VSB - VISIBILITY
$$



USA.gov is the U.S. government's official web portal to all federal, state and local government web resources and services.